Saint Regis, MT

6:40 AM MST on February 28, 2017 (GMT -0700)
Mullan Pass

Weather History for KMLP - December, 2012

Change the Weather History Date:

Tuesday, December 25, 2012

  Actual Average (K3TH) Record (K3TH)
Temperature  
Mean Temperature 19 °F -  
Max Temperature 21 °F 30 °F 34 °F (2000)
Min Temperature 17 °F 24 °F 19 °F (1996)
Degree Days  
Heating Degree Days 46    
Moisture  
Dew Point 15 °F    
Average Humidity 83    
Maximum Humidity 86    
Minimum Humidity 78    
Precipitation  
Precipitation 0.03 in - - ()
Sea Level Pressure  
Sea Level Pressure 29.84 in    
Wind  
Wind Speed 3 mph (SSE)    
Max Wind Speed 8 mph    
Max Gust Speed -    
Visibility 2 miles    
Events Fog , Snow    
Averages and records for this station are not official NWS values.
T = Trace of Precipitation, MM = Missing Value Source: NWS Daily Summary

Daily Weather History Graph

Daily Weather History Graph

Search for Another Location

Airport or City:

Trip Planner

Search our weather history database for the weather conditions in past years. The results will help you decide how hot, cold, wet, or windy it might be!

Date:

Astronomy

Dec. 25, 2012 Rise Set
Actual Time 7:29 AM PST 3:57 PM PST
Civil Twilight 6:53 AM PST 4:32 PM PST
Nautical Twilight 6:14 AM PST 5:12 PM PST
Astronomical Twilight 5:36 AM PST 5:49 PM PST
Moon 2:10 PM PST (12/25) 5:02 AM PST (12/25)
Length of Visible Light 9h 39m
Length of Day
8h 27m
Waxing Gibbous, 94% of the Moon is Illuminated
Dec 25
Waxing Gibbous
Dec 28
Full
Jan 4
Last Quarter
Jan 11
New
Jan 18
First Quarter

Hourly Weather History & Observations

Time (PST) Temp. Windchill Dew Point Humidity Pressure Visibility Wind Dir Wind Speed Gust Speed Precip Events Conditions
12:49 AM 21.2 °F - 17.6 °F 86% 29.98 in 6.0 mi Calm Calm - N/A   Overcast
12:53 AM 21.9 °F 17.2 °F 18.0 °F 85% 30.12 in 5.0 mi Variable 3.5 mph - N/A   Overcast
1:06 AM 21.2 °F - 17.6 °F 86% 29.98 in 2.0 mi Calm Calm - N/A   Overcast
1:20 AM 21.2 °F 16.4 °F 17.6 °F 86% 29.98 in 1.8 mi Variable 3.5 mph - 0.00 in Snow Light Snow
1:46 AM 21.2 °F - 17.6 °F 86% 29.98 in 1.2 mi Calm Calm - 0.00 in   Haze
1:53 AM 21.9 °F - 18.0 °F 85% 30.14 in 2.0 mi Calm Calm - 0.00 in   Overcast
2:03 AM 21.2 °F - 17.6 °F 86% 29.98 in 1.8 mi Calm Calm - 0.00 in Snow Light Snow
2:09 AM 21.2 °F - 17.6 °F 86% 29.98 in 3.0 mi Calm Calm - 0.00 in Snow Light Snow
2:53 AM 21.9 °F 17.2 °F 17.1 °F 82% 30.12 in 7.0 mi SSW 3.5 mph - 0.00 in Snow Light Snow
3:00 AM 21.2 °F 16.4 °F 17.6 °F 86% 29.97 in 2.0 mi Variable 3.5 mph - 0.00 in Snow Light Snow
3:11 AM 21.2 °F 16.4 °F 17.6 °F 86% 29.96 in 4.0 mi Variable 3.5 mph - 0.00 in   Overcast
3:17 AM 21.2 °F 16.4 °F 17.6 °F 86% 29.96 in 7.0 mi SSW 3.5 mph - 0.00 in   Overcast
3:53 AM 21.0 °F - 16.0 °F 81% 30.10 in 10.0 mi Calm Calm - 0.00 in   Overcast
4:13 AM 21.2 °F - 17.6 °F 86% 29.95 in 2.5 mi Calm Calm - N/A   Overcast
4:16 AM 21.2 °F 16.4 °F 17.6 °F 86% 29.95 in 1.2 mi SSW 3.5 mph - N/A   Overcast
4:30 AM 21.2 °F - 15.8 °F 80% 29.95 in 0.8 mi Calm Calm - 0.00 in Snow Light Snow
4:53 AM 21.0 °F 16.2 °F 17.1 °F 85% 30.10 in 0.5 mi South 3.5 mph - 0.00 in Fog , Snow Light Snow
5:09 AM 21.2 °F 16.4 °F 17.6 °F 86% 29.94 in 0.5 mi Variable 3.5 mph - 0.00 in Fog Light Freezing Fog
5:40 AM 21.2 °F 16.4 °F 17.6 °F 86% 29.94 in 1.5 mi SSE 3.5 mph - 0.00 in   Overcast
5:49 AM 21.2 °F 14.9 °F 17.6 °F 86% 29.93 in 1.0 mi SSE 4.6 mph - 0.00 in   Mist
5:53 AM 21.0 °F 16.2 °F 17.1 °F 85% 30.08 in 0.8 mi SE 3.5 mph - 0.00 in   Mist
6:04 AM 21.2 °F 16.4 °F 17.6 °F 86% 29.93 in 1.2 mi SE 3.5 mph - N/A   Overcast
6:27 AM 21.2 °F 16.4 °F 15.8 °F 80% 29.92 in 2.0 mi Variable 3.5 mph - N/A   Haze
6:37 AM 21.2 °F 14.9 °F 15.8 °F 80% 29.91 in 1.2 mi SE 4.6 mph - N/A   Haze
6:43 AM 19.4 °F 14.3 °F 15.8 °F 86% 29.91 in 0.2 mi Variable 3.5 mph - N/A Fog Light Freezing Fog
6:51 AM 19.4 °F 14.3 °F 15.8 °F 86% 29.91 in 0.2 mi Variable 3.5 mph - N/A Fog Light Freezing Fog
6:53 AM 19.9 °F 14.9 °F 16.0 °F 85% 30.06 in 0.2 mi Variable 3.5 mph - N/A Fog Light Freezing Fog
7:09 AM 19.4 °F 12.8 °F 15.8 °F 86% 29.90 in 0.5 mi Variable 4.6 mph - N/A Fog Light Freezing Fog
7:49 AM 19.4 °F 10.4 °F 15.8 °F 86% 29.88 in 0.2 mi Variable 6.9 mph - N/A   Haze
7:53 AM 19.9 °F 11.1 °F 15.1 °F 81% 30.04 in 0.2 mi SSE 6.9 mph - N/A   Haze
8:53 AM 19.9 °F 10.1 °F 16.0 °F 85% 30.03 in 0.2 mi SSE 8.1 mph - N/A Fog Light Freezing Fog
9:53 AM 19.9 °F 10.1 °F 16.0 °F 85% 30.02 in 0.2 mi SSE 8.1 mph - N/A Fog Light Freezing Fog
10:53 AM 19.9 °F 11.1 °F 16.0 °F 85% 29.99 in 0.2 mi Variable 6.9 mph - N/A Fog Light Freezing Fog
11:53 AM 21.9 °F 14.5 °F 16.0 °F 78% 29.94 in 0.5 mi Variable 5.8 mph - N/A   Haze
12:14 PM 19.4 °F 11.5 °F 15.8 °F 86% 29.79 in 0.2 mi Variable 5.8 mph - N/A Fog Light Freezing Fog
12:53 PM 21.0 °F 12.4 °F 16.0 °F 81% 29.91 in 0.2 mi Variable 6.9 mph - N/A   Haze
1:29 PM 19.4 °F 11.5 °F 15.8 °F 86% 29.75 in 0.5 mi Variable 5.8 mph - N/A Fog Light Freezing Fog
1:53 PM 19.9 °F 12.1 °F 16.0 °F 85% 29.89 in 0.8 mi SE 5.8 mph - N/A   Mist
2:13 PM 19.4 °F 11.5 °F 15.8 °F 86% 29.72 in 0.2 mi Variable 5.8 mph - N/A   Haze
2:53 PM 19.9 °F 14.9 °F 15.1 °F 81% 29.87 in 0.2 mi Variable 3.5 mph - N/A   Haze
3:31 PM 19.4 °F 9.5 °F 15.8 °F 86% 29.71 in 0.5 mi South 8.1 mph - N/A Fog Light Freezing Fog
3:40 PM 19.4 °F 9.5 °F 15.8 °F 86% 29.71 in 0.2 mi South 8.1 mph - N/A Fog Light Freezing Fog
3:47 PM 19.4 °F 11.5 °F 15.8 °F 86% 29.71 in 0.8 mi SSE 5.8 mph - N/A   Overcast
3:51 PM 19.4 °F 10.4 °F 15.8 °F 86% 29.71 in 1.8 mi SSE 6.9 mph - N/A   Overcast
3:53 PM 19.0 °F 11.1 °F 15.1 °F 85% 29.88 in 4.0 mi SSE 5.8 mph - N/A   Overcast
4:53 PM 19.9 °F 13.4 °F 15.1 °F 81% 29.86 in 10.0 mi SE 4.6 mph - N/A   Overcast
5:40 PM 19.4 °F 10.4 °F 14.0 °F 80% 29.69 in 8.0 mi South 6.9 mph - N/A   Overcast
5:53 PM 19.0 °F 11.1 °F 14.0 °F 81% 29.86 in 10.0 mi Variable 5.8 mph - N/A   Overcast
6:05 PM 19.4 °F 12.8 °F 14.0 °F 80% 29.70 in 2.5 mi SSE 4.6 mph - 0.00 in Snow Light Snow
6:24 PM 19.4 °F 11.5 °F 14.0 °F 80% 29.70 in 4.0 mi SSE 5.8 mph - 0.00 in Snow Light Snow
6:51 PM 17.6 °F 10.7 °F 14.0 °F 86% 29.68 in 3.0 mi SE 4.6 mph - 0.00 in Snow Light Snow
6:53 PM 18.0 °F 9.8 °F 14.0 °F 84% 29.85 in 3.0 mi SE 5.8 mph - 0.00 in Snow Light Snow
7:22 PM 17.6 °F 9.3 °F 14.0 °F 86% 29.68 in 1.8 mi SSE 5.8 mph - 0.00 in Snow Light Snow
7:46 PM 17.6 °F 8.2 °F 14.0 °F 86% 29.68 in 1.2 mi SSE 6.9 mph - 0.00 in Snow Light Snow
7:53 PM 18.0 °F 8.7 °F 12.9 °F 81% 29.84 in 1.5 mi Variable 6.9 mph - 0.00 in Snow Light Snow
8:03 PM 17.6 °F 9.3 °F 14.0 °F 86% 29.67 in 2.5 mi SSE 5.8 mph - 0.01 in Snow Light Snow
8:16 PM 17.6 °F 10.7 °F 14.0 °F 86% 29.67 in 2.5 mi Variable 4.6 mph - 0.01 in Snow Light Snow
8:24 PM 17.6 °F 10.7 °F 14.0 °F 86% 29.67 in 3.0 mi SSE 4.6 mph - 0.01 in Snow Light Snow
8:40 PM 17.6 °F 10.7 °F 12.2 °F 79% 29.67 in 2.5 mi Variable 4.6 mph - 0.01 in Snow Light Snow
8:51 PM 17.6 °F 9.3 °F 14.0 °F 86% 29.66 in 4.0 mi Variable 5.8 mph - 0.01 in Snow Light Snow
8:53 PM 18.0 °F 9.8 °F 14.0 °F 84% 29.83 in 4.0 mi Variable 5.8 mph - 0.01 in Snow Light Snow
9:06 PM 17.6 °F 9.3 °F 14.0 °F 86% 29.66 in 1.8 mi Variable 5.8 mph - 0.00 in Snow Light Snow
9:17 PM 17.6 °F 10.7 °F 12.2 °F 79% 29.66 in 1.5 mi Variable 4.6 mph - 0.00 in Snow Light Snow
9:22 PM 17.6 °F 10.7 °F 12.2 °F 79% 29.66 in 1.2 mi Variable 4.6 mph - 0.00 in Snow Light Snow
9:29 PM 17.6 °F 10.7 °F 12.2 °F 79% 29.66 in 1.2 mi SSE 4.6 mph - 0.00 in Snow Light Snow
9:41 PM 17.6 °F 9.3 °F 12.2 °F 79% 29.66 in 1.2 mi SSE 5.8 mph - 0.01 in Snow Light Snow
9:49 PM 17.6 °F 10.7 °F 12.2 °F 79% 29.66 in 1.5 mi SE 4.6 mph - 0.01 in Snow Light Snow
9:53 PM 18.0 °F 11.1 °F 12.9 °F 81% 29.83 in 1.5 mi Variable 4.6 mph - 0.01 in Snow Light Snow
10:11 PM 17.6 °F 10.7 °F 12.2 °F 79% 29.65 in 1.2 mi SE 4.6 mph - 0.00 in Snow Light Snow
10:36 PM 17.6 °F 10.7 °F 12.2 °F 79% 29.65 in 1.5 mi SE 4.6 mph - 0.01 in Snow Light Snow
10:53 PM 18.0 °F 12.7 °F 12.9 °F 81% 29.82 in 2.0 mi Variable 3.5 mph - 0.01 in Snow Light Snow
11:01 PM 17.6 °F 10.7 °F 12.2 °F 79% 29.65 in 1.8 mi Variable 4.6 mph - 0.00 in Snow Light Snow
11:22 PM 17.6 °F 10.7 °F 12.2 °F 79% 29.64 in 2.5 mi Variable 4.6 mph - 0.00 in Snow Light Snow
11:37 PM 17.6 °F 9.3 °F 12.2 °F 79% 29.64 in 2.5 mi SSE 5.8 mph - 0.00 in Snow Light Snow
11:40 PM 17.6 °F 10.7 °F 12.2 °F 79% 29.64 in 3.0 mi Variable 4.6 mph - 0.00 in Snow Light Snow
11:53 PM 18.0 °F 12.7 °F 12.9 °F 81% 29.79 in 5.0 mi Variable 3.5 mph - 0.00 in Snow Light Snow